OneWeb SL0096

operational
NORAD ID: 45439 Int'l Des: 2020-020 Owner: ONEWEB Country: UK Constellation: oneweb
LEOCIRCULARPOLARONEWEB_TYPE

关于 OneWeb SL0096

正在加载描述...

实时位置

正在加载3D地球...

即将过境

高度历史

Altitude vs Time

uPlot chart will show altitude changes over time

两行轨道根数

1 45439U 20020R 25304.77688669 .00000151 00000-0 39019-3 0 9992
2 45439 87.8857 66.5333 0001659 107.6095 252.5214 13.11420756272726
Epoch: Oct 31, 2025 • Age: 9 hours

当前状态

高度 1247.7 km
速度 7.23 km/s
星下点 -86.97°S, 160.16°W
发射日期 Mar 21, 2020
运行时间 5.6 years
类型 internet

技术详情

分类 Payload
质量 148.00 kg
干质量 140.00 kg
总质量 148.00 kg
长度 1.30 m
直径 1.00 m
跨度 5.00 m
形状 Trapezoid+2 pan
制造商 ONEWUS
平台类型 ARROW
阶段状态 In Orbit
所有者/国家 ONEWEB/UK

大型星座

Loading constellations...